Location: Unspecified
(0.0000°N, 0.0000°E)
Time: 04:35:05
(UTC+00:00)

Transit 2A - Pass Details

Date: 09 October 2020
Orbit: 593 x 966 km, 66.7° (Epoch: 28 October)

Event Time Altitude Azimuth Distance (km) Brightness Sun altitude
Rises 03:34:25 0° 186° (S) 3,292 - -33.0°
Reaches altitude 10° 03:36:52 10° 180° (S) 2,418 - -32.4°
Exits shadow 03:37:03 11° 179° (S) 2,353 8.6 -32.3°
Maximum altitude 03:42:12 44° 109° (ESE) 1,200 7.3 -31.0°
Drops below altitude 10° 03:47:57 10° 38° (NE) 2,619 9.1 -29.6°
Sets 03:50:41 0° 32° (NNE) 3,594 9.8 -28.9°
